The Dalles, WA

12:00 AM PST on November 19, 2019 (GMT -0800)
Columbia Gorge Regional-The Dalles

Weather History for KDLS - May, 2019

Change the Weather History Date:

Thursday, May 9, 2019

  Actual Average Record
Temperature  
Mean Temperature 66 °F -  
Max Temperature 82 °F 72 °F 93 °F (1987)
Min Temperature 51 °F 47 °F 35 °F (1990)
Cooling Degree Days 2    
Growing Degree Days 16 (Base 50)    
Moisture  
Dew Point 40 °F    
Average Humidity 42    
Maximum Humidity 74    
Minimum Humidity 16    
Precipitation  
Precipitation 0.00 in - - ()
Sea Level Pressure  
Sea Level Pressure 29.99 in    
Wind  
Wind Speed 4 mph (ESE)    
Max Wind Speed 12 mph    
Max Gust Speed 21 mph    
Visibility 10 miles    
Events      
Averages and records for this station are not official NWS values.
T = Trace of Precipitation, MM = Missing Value Source: NWS Daily Summary

Daily Weather History Graph

Daily Weather History Graph

Search for Another Location

Airport or City:

Astronomy

May. 09, 2019 Rise Set
Actual Time 5:41 AM PDT 8:21 PM PDT
Civil Twilight 5:07 AM PDT 8:55 PM PDT
Nautical Twilight 4:24 AM PDT 9:38 PM PDT
Astronomical Twilight 3:35 AM PDT 10:28 PM PDT
Moon 9:37 AM PDT (5/9) 12:30 AM PDT (5/9)
Length of Visible Light 15h 48m
Length of Day
14h 40m
Waxing Crescent, 26% of the Moon is Illuminated
May 9
Waxing Crescent
May 11
First Quarter
May 18
Full
May 26
Last Quarter
Jun 3
New

Hourly Weather History & Observations

Time (PDT) Temp. Dew Point Humidity Pressure Visibility Wind Dir Wind Speed Gust Speed Precip Events Conditions
12:53 AM 62.1 °F 46.9 °F 58% 30.00 in 10.0 mi Calm Calm - N/A   Mostly Cloudy
1:53 AM 59.0 °F 46.9 °F 64% 30.01 in 10.0 mi ESE 4.6 mph - N/A   Overcast
2:53 AM 57.9 °F 45.0 °F 62% 30.00 in 10.0 mi East 4.6 mph - N/A   Clear
3:53 AM 55.0 °F 44.1 °F 67% 30.01 in 10.0 mi Calm Calm - N/A   Partly Cloudy
4:53 AM 57.0 °F 45.0 °F 64% 30.01 in 10.0 mi Calm Calm - N/A   Clear
5:53 AM 51.1 °F 43.0 °F 74% 30.02 in 10.0 mi ESE 5.8 mph - N/A   Clear
6:53 AM 54.0 °F 44.1 °F 69% 30.04 in 10.0 mi East 4.6 mph - N/A   Clear
7:53 AM 59.0 °F 46.0 °F 62% 30.06 in 10.0 mi East 5.8 mph - N/A   Clear
8:53 AM 63.0 °F 46.0 °F 54% 30.06 in 10.0 mi ENE 3.5 mph - N/A   Clear
9:53 AM 66.9 °F 46.0 °F 47% 30.06 in 10.0 mi Calm Calm - N/A   Clear
10:53 AM 72.0 °F 46.0 °F 40% 30.05 in 10.0 mi Calm Calm - N/A   Clear
11:53 AM 78.1 °F 39.0 °F 25% 30.04 in 10.0 mi East 5.8 mph - N/A   Clear
12:53 PM 81.0 °F 37.0 °F 21% 30.01 in 10.0 mi ESE 10.4 mph 20.7 mph N/A   Clear
1:53 PM 82.0 °F 34.0 °F 18% 30.00 in 10.0 mi ENE 11.5 mph - N/A   Clear
2:53 PM 82.9 °F 33.1 °F 17% 29.98 in 10.0 mi East 8.1 mph 20.7 mph N/A   Clear
3:53 PM 82.0 °F 30.9 °F 16% 29.95 in 10.0 mi Variable 6.9 mph - N/A   Clear
4:53 PM 82.0 °F 32.0 °F 16% 29.92 in 10.0 mi East 10.4 mph - N/A   Clear
5:53 PM 81.0 °F 33.1 °F 18% 29.90 in 10.0 mi ESE 9.2 mph - N/A   Clear
6:53 PM 79.0 °F 34.0 °F 20% 29.90 in 10.0 mi SE 6.9 mph - N/A   Clear
7:53 PM 72.0 °F 37.0 °F 28% 29.90 in 10.0 mi ESE 4.6 mph - N/A   Clear
8:53 PM 66.9 °F 36.0 °F 32% 29.91 in 10.0 mi Calm Calm - N/A   Clear
9:53 PM 62.1 °F 37.0 °F 39% 29.94 in 10.0 mi Calm Calm - N/A   Clear
10:53 PM 57.0 °F 36.0 °F 45% 29.94 in 10.0 mi Calm Calm - N/A   Clear
11:53 PM 54.0 °F 37.0 °F 53% 29.95 in 10.0 mi SE 4.6 mph - N/A   Clear